Flag for Switzerland Weather past 2 weeks in Chur, Graubünden, Switzerland

Now
42 °F

Quite cool.


Feels Like: 38 °F
Forecast: 50 / 55 °F
Wind: 7 mph from Southwest

Location: Chur-Ems

Current Time: Mar 29, 2015 at 8:33:20 AM

Latest Report: Mar 29, 2015 at 7:00 AM


Visibility: N/A

Pressure: 30.07 "Hg

Humidity: 77%

Dew point: 35 °F

Location of ChurLocation

Historic Weather in Chur — Graph

°F

Chur temperature yesterday

Maximum temperature yesterday: 59 °F (at 4:00 PM)
Minimum temperature yesterday: 33 °F (at 7:00 AM)
Average temperature yesterday: 47 °F

Past Weeks' High & Low Weather Summary

 TemperatureHumidityPressure
High65 °F (Mar 18, 2:40 PM)95% (Mar 23, 6:00 AM)30.34 "Hg (Mar 23, 6:00 AM)
Low28 °F (Mar 14, 6:00 AM)15% (Mar 28, 2:00 PM)29.50 "Hg (Mar 25, 1:00 PM)
Average47 °F60%30.05 "Hg
* Reported Mar 14 6:00 AM — Mar 29 7:00 AM, Chur, Weather by CustomWeather, © 2015

Note: Actual official high and low records may vary slightly from our data, if they occured in-between our weather recording intervals... More about our weather records

Advertising

Chur weather history for previous 24 hours

 ConditionsComfort  
Time TempWeatherWind HumidityBarometerVisibility
7:00 AM
Sun, Mar 29
42 °FQuite cool.7 mph77%30.07 "HgN/A
6:00 AM42 °FQuite cool.9 mph83%30.09 "HgN/A
5:00 AM43 °FFog.5 mph85%30.13 "Hg7 mi
4:00 AM43 °FQuite cool.1 mph88%30.12 "HgN/A
3:00 AM43 °FQuite cool.No wind89%30.13 "HgN/A
1:00 AM44 °FFog.No wind85%30.14 "Hg7 mi
12:00 AM44 °FQuite cool.3 mph88%30.15 "HgN/A
11:00 PM
Sat, Mar 28
45 °FQuite cool.3 mph82%30.16 "HgN/A
9:00 PM47 °FCool.12 mph70%30.14 "HgN/A
8:00 PM49 °FCool.14 mph58%30.11 "HgN/A
7:00 PM54 °FOvercast.14 mph38%30.06 "Hg8 mi
6:00 PM55 °FRefreshingly cool.13 mph37%30.03 "HgN/A
5:00 PM58 °FRefreshingly cool.12 mph22%30.01 "HgN/A
4:00 PM59 °FPassing clouds.9 mph19%30.02 "Hg12 mi
3:00 PM59 °FRefreshingly cool.12 mph23%30.03 "HgN/A
2:00 PM58 °FRefreshingly cool.7 mph15%30.06 "HgN/A
1:00 PM56 °FSunny.2 mph28%30.10 "Hg12 mi
12:00 PM52 °FCool.3 mph36%30.14 "HgN/A
11:00 AM51 °FCool.6 mph38%30.19 "HgN/A
10:00 AM47 °FPassing clouds.7 mph47%30.23 "Hg12 mi
9:00 AM43 °FQuite cool.3 mph61%30.28 "HgN/A
8:00 AM35 °FChilly.2 mph81%30.33 "HgN/A
Weather by CustomWeather, © 2015

See weather overviewHow to use our weather pages